AGUSAN URFF-UAKK

Flight info

Callsign AGUSAN
Flight time N/A
Altitude FL450
Route SOGTA N190 PALER B491 SM A961 ELI R122 UP R710 ZG G487 OBATA L988 KODUM N996 ARK M166 SEHAL
Aircraft C750/M-L/C

Departure

Time N/A
Airport URFF

Arrival

Time 2026-05-01 14:01
Airport Sary-Arka Airport (UAKK)
Time Latitude Longitude Altitude Speed Heading
2026-05-01 10:34 45.03551 33.97676 602 ft 0 kts 14°
2026-05-01 10:37 45.03512 33.97663 602 ft 4 kts 13°
2026-05-01 10:37 45.03494 33.97657 602 ft 4 kts 12°
2026-05-01 10:38 45.03465 33.97652 602 ft 2 kts 356°
2026-05-01 10:38 45.03454 33.97655 602 ft 2 kts 327°
2026-05-01 10:38 45.03446 33.97666 602 ft 2 kts 295°
2026-05-01 10:38 45.03442 33.97680 602 ft 1 kts 288°
2026-05-01 10:41 45.03442 33.97678 602 ft 0 kts 288°
2026-05-01 10:41 45.03481 33.97374 602 ft 28 kts 282°
2026-05-01 10:42 45.03529 33.97114 602 ft 26 kts 289°
2026-05-01 10:42 45.03650 33.96972 603 ft 22 kts 339°
2026-05-01 10:42 45.03787 33.96899 603 ft 19 kts 344°
2026-05-01 10:42 45.03829 33.96900 612 ft 0 kts 12°
2026-05-01 10:43 45.03836 33.96902 610 ft 10 kts 12°
2026-05-01 10:43 45.04174 33.97018 612 ft 99 kts 14°
2026-05-01 10:43 45.05043 33.97308 722 ft 141 kts 14°
2026-05-01 10:44 45.06034 33.97679 1158 ft 154 kts 20°
2026-05-01 10:44 45.07028 33.98292 1818 ft 157 kts 28°
2026-05-01 10:44 45.07961 33.99128 2438 ft 161 kts 37°
2026-05-01 10:44 45.08787 34.00164 3201 ft 156 kts 46°
2026-05-01 10:45 45.09287 34.00946 3507 ft 169 kts 50°
2026-05-01 10:45 45.10279 34.02851 4203 ft 193 kts 60°
2026-05-01 10:45 45.10671 34.04050 4450 ft 211 kts 66°
2026-05-01 10:45 45.11710 34.06674 4917 ft 249 kts 53°
2026-05-01 10:46 45.12968 34.08440 5651 ft 257 kts 39°
2026-05-01 10:46 45.14381 34.09979 6622 ft 259 kts 37°
2026-05-01 10:46 45.15793 34.11622 7421 ft 267 kts 40°
2026-05-01 10:46 45.17197 34.13382 8285 ft 274 kts 41°
2026-05-01 10:47 45.18646 34.15180 9160 ft 281 kts 39°
2026-05-01 10:47 45.20151 34.17006 9975 ft 289 kts 39°
2026-05-01 10:47 45.21700 34.18891 10540 ft 303 kts 39°
2026-05-01 10:47 45.23361 34.20927 10665 ft 330 kts 39°
2026-05-01 10:48 45.25125 34.23193 10701 ft 356 kts 46°
2026-05-01 10:48 45.26000 34.25184 11049 ft 360 kts 66°
2026-05-01 10:48 45.26413 34.29836 12044 ft 362 kts 92°
2026-05-01 10:48 45.26187 34.33404 12691 ft 366 kts 96°
2026-05-01 10:49 45.25965 34.37015 13335 ft 371 kts 94°
2026-05-01 10:49 45.25855 34.40687 13941 ft 376 kts 92°
2026-05-01 10:49 45.25753 34.44417 14462 ft 382 kts 93°
2026-05-01 10:49 45.25585 34.48199 14992 ft 387 kts 94°
2026-05-01 10:50 45.25402 34.52030 15502 ft 393 kts 94°
2026-05-01 10:50 45.25296 34.54617 15851 ft 397 kts 94°
2026-05-01 10:50 45.25099 34.59868 16573 ft 404 kts 94°
2026-05-01 10:50 45.24931 34.63870 17123 ft 410 kts 95°
2026-05-01 10:51 45.24752 34.67925 17702 ft 415 kts 95°
2026-05-01 10:51 45.24577 34.72037 18271 ft 421 kts 95°
2026-05-01 10:51 45.24462 34.74809 18640 ft 425 kts 95°
2026-05-01 10:51 45.24222 34.80419 19339 ft 431 kts 95°
2026-05-01 10:52 45.24033 34.84687 19863 ft 437 kts 96°
2026-05-01 10:52 45.23843 34.89001 20400 ft 442 kts 96°
2026-05-01 10:52 45.23651 34.93370 20930 ft 447 kts 96°
2026-05-01 10:52 45.23454 34.97791 21453 ft 452 kts 96°
2026-05-01 10:53 45.23251 35.02262 21967 ft 458 kts 96°
2026-05-01 10:53 45.23045 35.06784 22482 ft 463 kts 96°
2026-05-01 10:53 45.22906 35.09828 22819 ft 467 kts 97°
2026-05-01 10:53 45.22621 35.15982 23496 ft 474 kts 97°
2026-05-01 10:54 45.22402 35.20659 23946 ft 479 kts 97°
2026-05-01 10:54 45.22180 35.25377 24406 ft 482 kts 97°
2026-05-01 10:54 45.21955 35.30126 24862 ft 486 kts 97°
2026-05-01 10:54 45.21802 35.33316 25161 ft 488 kts 97°
2026-05-01 10:55 45.21491 35.39740 25756 ft 494 kts 97°
2026-05-01 10:55 45.21254 35.44604 26215 ft 497 kts 97°
2026-05-01 10:55 45.21013 35.49509 26667 ft 501 kts 97°
2026-05-01 10:55 45.20767 35.54447 27118 ft 505 kts 97°
2026-05-01 10:56 45.20518 35.59424 27562 ft 510 kts 97°
2026-05-01 10:56 45.20264 35.64445 28025 ft 514 kts 97°
2026-05-01 10:56 45.20006 35.69504 28498 ft 518 kts 97°
2026-05-01 10:56 45.19744 35.74601 28942 ft 522 kts 97°
2026-05-01 10:57 45.19477 35.79743 29398 ft 526 kts 97°
2026-05-01 10:57 45.19206 35.84925 29837 ft 530 kts 97°
2026-05-01 10:57 45.18930 35.90146 30270 ft 534 kts 97°
2026-05-01 10:57 45.18650 35.95398 30626 ft 538 kts 97°
2026-05-01 10:58 45.18365 36.00696 31009 ft 541 kts 97°
2026-05-01 10:58 45.18078 36.06004 31537 ft 540 kts 97°
2026-05-01 10:58 45.17790 36.11291 32115 ft 539 kts 97°
2026-05-01 10:58 45.17595 36.14822 32473 ft 539 kts 97°
2026-05-01 10:59 45.17203 36.21868 33205 ft 539 kts 96°
2026-05-01 10:59 45.16908 36.27145 33770 ft 539 kts 96°
2026-05-01 10:59 45.16709 36.30668 34136 ft 538 kts 97°
2026-05-01 10:59 45.16309 36.37692 34820 ft 536 kts 96°
2026-05-01 11:00 45.16008 36.42933 35396 ft 534 kts 96°
2026-05-01 11:00 45.15706 36.48149 35990 ft 531 kts 96°
2026-05-01 11:00 45.15383 36.53328 36571 ft 527 kts 98°
2026-05-01 11:00 45.14707 36.58399 37093 ft 523 kts 106°
2026-05-01 11:01 45.13751 36.63334 37688 ft 519 kts 109°
2026-05-01 11:01 45.12742 36.68218 38292 ft 517 kts 108°
2026-05-01 11:01 45.11838 36.73125 38868 ft 515 kts 106°
2026-05-01 11:01 45.10994 36.78041 39317 ft 514 kts 106°
2026-05-01 11:02 45.10091 36.82914 39725 ft 513 kts 108°
2026-05-01 11:02 45.09135 36.87760 40150 ft 511 kts 108°
2026-05-01 11:02 45.08212 36.92594 40571 ft 511 kts 107°
2026-05-01 11:02 45.07620 36.95836 40854 ft 510 kts 107°
2026-05-01 11:03 45.06427 37.02291 41409 ft 509 kts 107°
2026-05-01 11:03 45.05809 37.05504 41695 ft 508 kts 107°
2026-05-01 11:03 45.04575 37.11905 42259 ft 507 kts 107°
2026-05-01 11:03 45.03669 37.16709 42657 ft 506 kts 107°
2026-05-01 11:04 45.02765 37.21501 43056 ft 505 kts 107°
2026-05-01 11:04 45.01848 37.26276 43446 ft 504 kts 107°
2026-05-01 11:04 45.00927 37.31040 43836 ft 503 kts 107°
2026-05-01 11:04 45.00046 37.35817 44191 ft 503 kts 104°
2026-05-01 11:05 44.99328 37.40647 44546 ft 503 kts 103°
2026-05-01 11:05 44.98653 37.45482 44904 ft 502 kts 103°
2026-05-01 11:05 44.97954 37.50311 45120 ft 505 kts 103°
2026-05-01 11:06 44.96465 37.60118 45102 ft 518 kts 103°
2026-05-01 11:06 44.94989 37.70180 45113 ft 531 kts 103°
2026-05-01 11:07 44.92658 37.85634 45114 ft 542 kts 103°
2026-05-01 11:07 44.91147 37.96040 45110 ft 542 kts 103°
2026-05-01 11:08 44.89586 38.06424 45106 ft 543 kts 104°
2026-05-01 11:09 44.87258 38.22011 45099 ft 543 kts 104°
2026-05-01 11:09 44.85679 38.32423 45093 ft 544 kts 104°
2026-05-01 11:10 44.83302 38.48028 45091 ft 544 kts 104°
2026-05-01 11:10 44.81705 38.58429 45090 ft 544 kts 104°
2026-05-01 11:11 44.80212 38.67027 45088 ft 542 kts 108°
2026-05-01 11:11 44.77676 38.78870 45096 ft 543 kts 109°
2026-05-01 11:12 44.75588 38.89061 45104 ft 543 kts 109°
2026-05-01 11:12 44.73424 38.99205 45105 ft 543 kts 109°
2026-05-01 11:13 44.71647 39.07668 45097 ft 543 kts 109°
2026-05-01 11:13 44.69127 39.19502 45089 ft 542 kts 109°
2026-05-01 11:14 44.66978 39.29641 45077 ft 543 kts 108°
2026-05-01 11:14 44.66030 39.40158 45080 ft 548 kts 90°
2026-05-01 11:15 44.67189 39.50708 45084 ft 550 kts 73°
2026-05-01 11:15 44.69702 39.58883 45085 ft 549 kts 59°
2026-05-01 11:16 44.73919 39.67789 45105 ft 549 kts 53°
2026-05-01 11:16 44.78561 39.78435 45087 ft 549 kts 62°
2026-05-01 11:17 44.81822 39.88136 45095 ft 550 kts 63°
2026-05-01 11:17 44.84895 39.95969 45094 ft 549 kts 59°
2026-05-01 11:18 44.88463 40.05468 45097 ft 549 kts 63°
2026-05-01 11:18 44.92598 40.16572 45095 ft 549 kts 60°
2026-05-01 11:19 44.96149 40.26100 45100 ft 550 kts 62°
2026-05-01 11:19 44.99078 40.34077 45087 ft 550 kts 61°
2026-05-01 11:20 45.02644 40.43611 45095 ft 550 kts 62°
2026-05-01 11:20 45.06736 40.54798 45112 ft 550 kts 62°
2026-05-01 11:21 45.10272 40.64383 45113 ft 550 kts 62°
2026-05-01 11:21 45.13188 40.72394 45107 ft 550 kts 62°
2026-05-01 11:22 45.17284 40.83604 45117 ft 550 kts 62°
2026-05-01 11:22 45.20776 40.93239 45120 ft 550 kts 62°
2026-05-01 11:23 45.24267 41.02875 45123 ft 550 kts 62°
2026-05-01 11:23 45.27742 41.12525 45115 ft 550 kts 62°
2026-05-01 11:24 45.30636 41.20571 45116 ft 550 kts 62°
2026-05-01 11:25 45.35827 41.35082 45116 ft 550 kts 63°
2026-05-01 11:25 45.41572 41.51226 45125 ft 550 kts 63°
2026-05-01 11:26 45.46722 41.65780 45124 ft 550 kts 63°
2026-05-01 11:27 45.49575 41.73880 45130 ft 550 kts 63°
2026-05-01 11:27 45.52990 41.83605 45131 ft 550 kts 63°
2026-05-01 11:28 45.56965 41.94970 45134 ft 550 kts 63°
2026-05-01 11:28 45.60363 42.04723 45129 ft 550 kts 63°
2026-05-01 11:29 45.65458 42.19413 45133 ft 552 kts 63°
2026-05-01 11:30 45.70535 42.34136 45136 ft 551 kts 63°
2026-05-01 11:30 45.73909 42.43963 45130 ft 551 kts 63°
2026-05-01 11:31 45.77272 42.53797 45130 ft 551 kts 63°
2026-05-01 11:31 45.80067 42.61996 45129 ft 551 kts 63°
2026-05-01 11:32 45.83412 42.71842 45131 ft 550 kts 64°
2026-05-01 11:32 45.87301 42.83337 45133 ft 550 kts 64°
2026-05-01 11:33 45.90624 42.93200 45132 ft 549 kts 64°
2026-05-01 11:33 45.93934 43.03059 45131 ft 549 kts 64°
2026-05-01 11:34 45.96687 43.11290 45133 ft 549 kts 64°
2026-05-01 11:34 46.00530 43.22821 45131 ft 549 kts 64°
2026-05-01 11:35 46.03814 43.32714 45129 ft 549 kts 64°
2026-05-01 11:35 46.07089 43.42620 45134 ft 549 kts 64°
2026-05-01 11:36 46.10357 43.52542 45130 ft 549 kts 64°
2026-05-01 11:36 46.13616 43.62472 45134 ft 549 kts 64°
2026-05-01 11:37 46.16867 43.72417 45134 ft 549 kts 65°
2026-05-01 11:37 46.20109 43.82373 45134 ft 549 kts 65°
2026-05-01 11:38 46.22802 43.90674 45135 ft 549 kts 65°
2026-05-01 11:38 46.26029 44.00652 45142 ft 549 kts 65°
2026-05-01 11:39 46.29780 44.12302 45154 ft 549 kts 65°
2026-05-01 11:39 46.32986 44.22300 45150 ft 549 kts 65°
2026-05-01 11:40 46.35672 44.32586 45145 ft 548 kts 78°
2026-05-01 11:40 46.36407 44.41665 45151 ft 547 kts 92°
2026-05-01 11:40 46.35941 44.48919 45147 ft 543 kts 103°
2026-05-01 11:41 46.35039 44.54195 45161 ft 540 kts 109°
2026-05-01 11:41 46.32726 44.64503 45164 ft 540 kts 111°
2026-05-01 11:42 46.30994 44.75083 45133 ft 543 kts 102°
2026-05-01 11:42 46.29856 44.84025 45131 ft 543 kts 105°
2026-05-01 11:43 46.28012 44.94571 45120 ft 543 kts 106°
2026-05-01 11:43 46.26183 45.07005 45119 ft 543 kts 105°
2026-05-01 11:44 46.23582 45.22914 45117 ft 544 kts 105°
2026-05-01 11:44 46.21914 45.33537 45111 ft 544 kts 106°
2026-05-01 11:45 46.20175 45.44131 45104 ft 543 kts 105°
2026-05-01 11:45 46.18767 45.52970 45103 ft 543 kts 106°
2026-05-01 11:46 46.16734 45.65306 45099 ft 543 kts 106°
2026-05-01 11:46 46.15009 45.75878 45101 ft 542 kts 106°
2026-05-01 11:47 46.13257 45.86423 45101 ft 542 kts 106°
2026-05-01 11:47 46.11509 45.96964 45096 ft 541 kts 106°
2026-05-01 11:48 46.09745 46.07483 45097 ft 541 kts 107°
2026-05-01 11:48 46.07976 46.17991 45094 ft 541 kts 107°
2026-05-01 11:49 46.06197 46.28484 45093 ft 541 kts 107°
2026-05-01 11:49 46.04411 46.38966 45095 ft 540 kts 107°
2026-05-01 11:50 46.02615 46.49435 45093 ft 540 kts 107°
2026-05-01 11:50 46.00811 46.59893 45090 ft 540 kts 107°
2026-05-01 11:51 45.98997 46.70342 45090 ft 539 kts 107°
2026-05-01 11:51 45.97175 46.80778 45087 ft 539 kts 107°
2026-05-01 11:52 45.95345 46.91204 45089 ft 539 kts 107°
2026-05-01 11:52 45.93652 47.01691 45069 ft 542 kts 101°
2026-05-01 11:53 45.93637 47.12536 45075 ft 549 kts 83°
2026-05-01 11:53 45.95477 47.23194 45103 ft 554 kts 73°
2026-05-01 11:54 45.97443 47.31946 45096 ft 553 kts 75°
2026-05-01 11:54 45.99428 47.44475 45102 ft 552 kts 79°
2026-05-01 11:55 46.01387 47.55143 45106 ft 553 kts 76°
2026-05-01 11:55 46.03196 47.65861 45103 ft 552 kts 78°
2026-05-01 11:56 46.04718 47.74797 45102 ft 553 kts 76°
2026-05-01 11:56 46.06887 47.87305 45103 ft 553 kts 78°
2026-05-01 11:57 46.08379 47.96265 45102 ft 553 kts 77°
2026-05-01 11:57 46.10522 48.08801 45102 ft 553 kts 78°
2026-05-01 11:58 46.12306 48.19564 45098 ft 554 kts 78°
2026-05-01 11:59 46.14999 48.35717 45096 ft 554 kts 78°
2026-05-01 11:59 46.16778 48.46503 45108 ft 554 kts 78°
2026-05-01 12:00 46.19663 48.62617 45096 ft 555 kts 70°
2026-05-01 12:01 46.24173 48.78009 45119 ft 556 kts 69°
2026-05-01 12:01 46.27002 48.88382 45122 ft 557 kts 68°
2026-05-01 12:02 46.29987 48.98685 45127 ft 556 kts 68°
2026-05-01 12:02 46.32848 49.09059 45133 ft 557 kts 69°
2026-05-01 12:03 46.35287 49.17681 45131 ft 557 kts 68°
2026-05-01 12:03 46.38428 49.27914 45129 ft 557 kts 66°
2026-05-01 12:04 46.42179 49.39797 45126 ft 557 kts 66°
2026-05-01 12:04 46.45365 49.50009 45126 ft 557 kts 66°
2026-05-01 12:05 46.48549 49.60197 45129 ft 556 kts 66°
2026-05-01 12:05 46.53296 49.75513 45138 ft 555 kts 66°
2026-05-01 12:06 46.56449 49.85732 45136 ft 556 kts 66°
2026-05-01 12:06 46.59593 49.95965 45143 ft 555 kts 66°
2026-05-01 12:07 46.62728 50.06205 45144 ft 556 kts 66°
2026-05-01 12:07 46.65854 50.16459 45138 ft 555 kts 66°
2026-05-01 12:08 46.68980 50.26755 45141 ft 558 kts 66°
2026-05-01 12:08 46.72099 50.37070 45142 ft 557 kts 67°
2026-05-01 12:09 46.75208 50.47396 45138 ft 557 kts 67°
2026-05-01 12:09 46.78309 50.57738 45131 ft 558 kts 67°
2026-05-01 12:10 46.82943 50.73275 45131 ft 558 kts 67°
2026-05-01 12:11 46.87555 50.88833 45128 ft 557 kts 67°
2026-05-01 12:11 46.90617 50.99217 45126 ft 557 kts 67°
2026-05-01 12:12 46.93669 51.09610 45127 ft 557 kts 68°
2026-05-01 12:12 46.96712 51.20017 45125 ft 557 kts 68°
2026-05-01 12:13 46.99744 51.30430 45119 ft 557 kts 68°
2026-05-01 12:13 47.02767 51.40855 45122 ft 557 kts 68°
2026-05-01 12:14 47.05277 51.49550 45115 ft 557 kts 68°
2026-05-01 12:14 47.08780 51.61731 45111 ft 557 kts 68°
2026-05-01 12:15 47.11772 51.72183 45109 ft 557 kts 68°
2026-05-01 12:15 47.14755 51.82650 45104 ft 557 kts 68°
2026-05-01 12:16 47.17727 51.93125 45100 ft 557 kts 68°
2026-05-01 12:16 47.20692 52.03618 45109 ft 557 kts 69°
2026-05-01 12:17 47.23647 52.14123 45109 ft 557 kts 69°
2026-05-01 12:17 47.26595 52.24648 45109 ft 557 kts 69°
2026-05-01 12:18 47.29533 52.35185 45108 ft 557 kts 69°
2026-05-01 12:18 47.32463 52.45737 45108 ft 557 kts 69°
2026-05-01 12:19 47.35382 52.56299 45103 ft 557 kts 69°
2026-05-01 12:19 47.38291 52.66868 45106 ft 558 kts 69°
2026-05-01 12:20 47.41191 52.77454 45103 ft 557 kts 69°
2026-05-01 12:20 47.43600 52.86283 45107 ft 557 kts 69°
2026-05-01 12:21 47.46960 52.98655 45115 ft 557 kts 69°
2026-05-01 12:21 47.49831 53.09275 45112 ft 557 kts 69°
2026-05-01 12:22 47.52691 53.19906 45109 ft 558 kts 70°
2026-05-01 12:22 47.55543 53.30553 45112 ft 558 kts 70°
2026-05-01 12:23 47.58386 53.41216 45110 ft 557 kts 70°
2026-05-01 12:23 47.61217 53.51881 45110 ft 558 kts 70°
2026-05-01 12:24 47.64040 53.62565 45107 ft 558 kts 70°
2026-05-01 12:24 47.66852 53.73255 45104 ft 557 kts 70°
2026-05-01 12:25 47.71052 53.89320 45107 ft 558 kts 70°
2026-05-01 12:26 47.73840 54.00042 45111 ft 558 kts 70°
2026-05-01 12:26 47.78003 54.16150 45106 ft 558 kts 70°
2026-05-01 12:27 47.82145 54.32288 45105 ft 558 kts 71°
2026-05-01 12:28 47.86266 54.48461 45093 ft 558 kts 71°
2026-05-01 12:29 47.90365 54.64658 45103 ft 558 kts 71°
2026-05-01 12:29 47.94454 54.80885 45098 ft 559 kts 71°
2026-05-01 12:30 47.98661 54.97070 45111 ft 559 kts 71°
2026-05-01 12:31 48.01415 55.07899 45114 ft 559 kts 71°
2026-05-01 12:31 48.04190 55.18719 45108 ft 559 kts 71°
2026-05-01 12:32 48.06928 55.29564 45111 ft 559 kts 71°
2026-05-01 12:32 48.11050 55.45888 45102 ft 561 kts 71°
2026-05-01 12:33 48.13784 55.56797 45090 ft 561 kts 71°
2026-05-01 12:33 48.16507 55.67713 45095 ft 561 kts 71°
2026-05-01 12:34 48.19221 55.78648 45094 ft 561 kts 71°
2026-05-01 12:34 48.21925 55.89592 45096 ft 561 kts 72°
2026-05-01 12:35 48.24170 55.98724 45093 ft 561 kts 72°
2026-05-01 12:35 48.27303 56.11525 45090 ft 561 kts 72°
2026-05-01 12:36 48.29976 56.22511 45098 ft 562 kts 72°
2026-05-01 12:36 48.32640 56.33508 45096 ft 561 kts 72°
2026-05-01 12:37 48.34850 56.42675 45095 ft 561 kts 72°
2026-05-01 12:37 48.37932 56.55522 45087 ft 561 kts 72°
2026-05-01 12:38 48.40561 56.66547 45088 ft 561 kts 72°
2026-05-01 12:38 48.43179 56.77575 45084 ft 561 kts 72°
2026-05-01 12:39 48.45354 56.86779 45083 ft 561 kts 72°
2026-05-01 12:39 48.48385 56.99675 45081 ft 561 kts 73°
2026-05-01 12:40 48.50974 57.10746 45080 ft 561 kts 73°
2026-05-01 12:40 48.53551 57.21830 45079 ft 561 kts 73°
2026-05-01 12:41 48.56118 57.32921 45079 ft 561 kts 73°
2026-05-01 12:41 48.58673 57.44022 45078 ft 561 kts 73°
2026-05-01 12:42 48.61219 57.55140 45074 ft 561 kts 73°
2026-05-01 12:42 48.63755 57.66275 45080 ft 561 kts 73°
2026-05-01 12:43 48.66280 57.77419 45071 ft 562 kts 73°
2026-05-01 12:43 48.68799 57.88589 45070 ft 562 kts 73°
2026-05-01 12:44 48.71304 57.99765 45071 ft 562 kts 73°
2026-05-01 12:45 48.76290 58.22179 45067 ft 563 kts 73°
2026-05-01 12:45 48.78767 58.33406 45067 ft 563 kts 73°
2026-05-01 12:46 48.81236 58.44654 45063 ft 563 kts 74°
2026-05-01 12:46 48.83693 58.55913 45067 ft 563 kts 74°
2026-05-01 12:47 48.86142 58.67190 45060 ft 564 kts 74°
2026-05-01 12:47 48.88579 58.78481 45057 ft 564 kts 74°
2026-05-01 12:48 48.91008 58.89793 45058 ft 564 kts 74°
2026-05-01 12:48 48.93426 59.01119 45060 ft 565 kts 74°
2026-05-01 12:49 48.95836 59.12467 45054 ft 565 kts 74°
2026-05-01 12:49 48.98237 59.23835 45061 ft 566 kts 74°
2026-05-01 12:50 49.00629 59.35229 45061 ft 566 kts 74°
2026-05-01 12:50 49.03012 59.46645 45052 ft 567 kts 74°
2026-05-01 12:51 49.05387 59.58083 45045 ft 568 kts 75°
2026-05-01 12:52 49.08935 59.75296 45051 ft 569 kts 75°
2026-05-01 12:52 49.12463 59.92562 45043 ft 569 kts 75°
2026-05-01 12:53 49.15966 60.09856 45042 ft 570 kts 75°
2026-05-01 12:54 49.18288 60.21407 45040 ft 570 kts 75°
2026-05-01 12:54 49.21369 60.36836 45040 ft 570 kts 75°
2026-05-01 12:55 49.25194 60.56162 45036 ft 571 kts 75°
2026-05-01 12:56 49.27475 60.67780 45033 ft 572 kts 75°
2026-05-01 12:56 49.29745 60.79415 45033 ft 571 kts 75°
2026-05-01 12:57 49.32004 60.91063 45033 ft 572 kts 76°
2026-05-01 12:57 49.35375 61.08574 45026 ft 572 kts 76°
2026-05-01 12:58 49.37607 61.20261 45026 ft 572 kts 76°
2026-05-01 12:59 49.40935 61.37820 45022 ft 572 kts 76°
2026-05-01 12:59 49.44235 61.55396 45020 ft 572 kts 76°
2026-05-01 13:00 49.47508 61.72990 45019 ft 572 kts 76°
2026-05-01 13:01 49.50397 61.88670 45020 ft 573 kts 76°
2026-05-01 13:02 49.53980 62.08295 45007 ft 573 kts 77°
2026-05-01 13:07 49.76748 63.38289 44997 ft 571 kts 77°
2026-05-01 13:08 49.78743 63.50152 44986 ft 571 kts 77°
2026-05-01 13:08 49.80396 63.60044 44978 ft 571 kts 77°
2026-05-01 13:09 49.82696 63.73909 44975 ft 571 kts 78°
2026-05-01 13:09 49.84655 63.85800 44978 ft 571 kts 78°
2026-05-01 13:10 49.86601 63.97699 44971 ft 571 kts 78°
2026-05-01 13:10 49.88214 64.07624 44966 ft 571 kts 78°
2026-05-01 13:11 49.90455 64.21517 44973 ft 570 kts 78°
2026-05-01 13:11 49.92363 64.33438 44967 ft 570 kts 78°
2026-05-01 13:12 49.94258 64.45362 44967 ft 570 kts 78°
2026-05-01 13:12 49.95827 64.55299 44965 ft 570 kts 78°
2026-05-01 13:13 49.98006 64.69203 44960 ft 567 kts 78°
2026-05-01 13:13 49.99842 64.81007 44961 ft 564 kts 78°
2026-05-01 13:14 50.01676 64.92897 44968 ft 568 kts 78°
2026-05-01 13:14 50.03504 65.04823 44971 ft 568 kts 78°
2026-05-01 13:15 50.05317 65.16752 44967 ft 568 kts 78°
2026-05-01 13:15 50.06820 65.26694 44959 ft 567 kts 78°
2026-05-01 13:16 50.08905 65.40607 44952 ft 567 kts 79°
2026-05-01 13:16 50.10678 65.52536 44949 ft 566 kts 79°
2026-05-01 13:17 50.14182 65.76378 44942 ft 565 kts 79°
2026-05-01 13:18 50.16772 65.94244 44933 ft 564 kts 79°
2026-05-01 13:18 50.18482 66.06154 44946 ft 564 kts 79°
2026-05-01 13:19 50.20181 66.18075 44938 ft 564 kts 79°
2026-05-01 13:20 50.22703 66.35958 44927 ft 563 kts 79°
2026-05-01 13:20 50.24369 66.47888 44933 ft 563 kts 79°
2026-05-01 13:21 50.26843 66.65783 44916 ft 563 kts 80°
2026-05-01 13:21 50.28476 66.77716 44915 ft 562 kts 80°
2026-05-01 13:22 50.29827 66.87670 44912 ft 562 kts 80°
2026-05-01 13:22 50.31488 67.01650 44894 ft 559 kts 88°
2026-05-01 13:23 50.31176 67.13676 44907 ft 553 kts 101°
2026-05-01 13:23 50.29987 67.25527 44910 ft 553 kts 101°
2026-05-01 13:24 50.29250 67.37498 44908 ft 555 kts 98°
2026-05-01 13:25 50.27799 67.55356 44897 ft 554 kts 99°
2026-05-01 13:25 50.27125 67.65319 44893 ft 554 kts 99°
2026-05-01 13:26 50.25985 67.79208 44888 ft 553 kts 100°
2026-05-01 13:26 50.25088 67.91130 44880 ft 554 kts 100°
2026-05-01 13:27 50.24112 68.03036 44878 ft 553 kts 101°
2026-05-01 13:27 50.22680 68.20887 44879 ft 553 kts 100°
2026-05-01 13:28 50.21198 68.38713 44871 ft 553 kts 100°
2026-05-01 13:29 50.19358 68.60471 44867 ft 552 kts 101°
2026-05-01 13:31 50.16094 68.97946 44867 ft 551 kts 101°
2026-05-01 13:32 50.13439 69.27403 44860 ft 550 kts 101°
2026-05-01 13:33 50.10886 69.54949 44860 ft 552 kts 101°
2026-05-01 13:34 50.08459 69.80492 44859 ft 552 kts 101°
2026-05-01 13:35 50.06745 69.98165 44862 ft 551 kts 101°
2026-05-01 13:36 50.05201 70.13846 44857 ft 551 kts 102°
2026-05-01 13:36 50.03445 70.31425 44500 ft 540 kts 102°
2026-05-01 13:37 50.02677 70.39028 43477 ft 528 kts 102°
2026-05-01 13:37 50.02297 70.42759 43015 ft 522 kts 102°
2026-05-01 13:37 50.01548 70.50087 42114 ft 510 kts 103°
2026-05-01 13:37 50.00996 70.55471 41458 ft 502 kts 103°
2026-05-01 13:38 49.99905 70.66015 40167 ft 490 kts 103°
2026-05-01 13:38 49.99361 70.71217 39533 ft 489 kts 104°
2026-05-01 13:38 49.98997 70.74690 39104 ft 490 kts 104°
2026-05-01 13:39 49.98266 70.81662 38181 ft 493 kts 104°
2026-05-01 13:39 49.97712 70.86915 37535 ft 495 kts 104°
2026-05-01 13:39 49.97150 70.92207 36884 ft 500 kts 104°
2026-05-01 13:39 49.96580 70.97550 36221 ft 504 kts 104°
2026-05-01 13:40 49.96198 71.01126 35782 ft 505 kts 104°
2026-05-01 13:40 49.95430 71.08298 34894 ft 506 kts 104°
2026-05-01 13:40 49.94849 71.13682 34228 ft 507 kts 105°
2026-05-01 13:40 49.94263 71.19067 33514 ft 506 kts 105°
2026-05-01 13:41 49.93680 71.24427 32849 ft 504 kts 105°
2026-05-01 13:41 49.93095 71.29782 32180 ft 504 kts 105°
2026-05-01 13:41 49.92505 71.35134 31518 ft 505 kts 105°
2026-05-01 13:41 49.91913 71.40492 30856 ft 506 kts 105°
2026-05-01 13:42 49.91317 71.45869 30195 ft 507 kts 105°
2026-05-01 13:42 49.90722 71.51230 29479 ft 502 kts 105°
2026-05-01 13:42 49.90134 71.56511 28816 ft 495 kts 105°
2026-05-01 13:42 49.89743 71.59991 28386 ft 490 kts 105°
2026-05-01 13:43 49.88964 71.66870 27529 ft 483 kts 105°
2026-05-01 13:43 49.88389 71.71955 26902 ft 477 kts 105°
2026-05-01 13:43 49.87819 71.76973 26276 ft 471 kts 105°
2026-05-01 13:43 49.87252 71.81936 25658 ft 465 kts 105°
2026-05-01 13:44 49.86877 71.85204 25253 ft 462 kts 105°
2026-05-01 13:44 49.86130 71.91691 24445 ft 456 kts 105°
2026-05-01 13:44 49.85575 71.96498 23850 ft 452 kts 105°
2026-05-01 13:44 49.85023 72.01257 23222 ft 448 kts 105°
2026-05-01 13:45 49.84476 72.05960 22619 ft 443 kts 105°
2026-05-01 13:45 49.83930 72.10622 22042 ft 439 kts 105°
2026-05-01 13:45 49.83387 72.15249 21465 ft 435 kts 105°
2026-05-01 13:45 49.82880 72.19838 20882 ft 433 kts 102°
2026-05-01 13:46 49.82830 72.22948 20487 ft 434 kts 91°
2026-05-01 13:46 49.83051 72.29142 19822 ft 431 kts 90°
2026-05-01 13:46 49.83194 72.33744 19285 ft 427 kts 91°
2026-05-01 13:46 49.83309 72.38305 18752 ft 423 kts 91°
2026-05-01 13:47 49.83431 72.42821 18224 ft 418 kts 90°
2026-05-01 13:47 49.83521 72.45803 17844 ft 416 kts 90°
2026-05-01 13:47 49.83655 72.50248 17322 ft 412 kts 90°
2026-05-01 13:47 49.83812 72.56103 16638 ft 406 kts 90°
2026-05-01 13:48 49.83888 72.59006 16300 ft 404 kts 90°
2026-05-01 13:48 49.84044 72.64748 15630 ft 399 kts 90°
2026-05-01 13:48 49.84159 72.69007 15132 ft 394 kts 90°
2026-05-01 13:48 49.84268 72.73216 14645 ft 390 kts 90°
2026-05-01 13:49 49.84374 72.77390 14157 ft 387 kts 90°
2026-05-01 13:49 49.84479 72.81523 13674 ft 383 kts 90°
2026-05-01 13:49 49.84582 72.85612 13166 ft 378 kts 90°
2026-05-01 13:49 49.84682 72.89667 12699 ft 376 kts 90°
2026-05-01 13:50 49.84779 72.93697 12232 ft 374 kts 90°
2026-05-01 13:50 49.84875 72.97697 11769 ft 371 kts 90°
2026-05-01 13:50 49.84969 73.01671 11309 ft 369 kts 90°
2026-05-01 13:50 49.85061 73.05570 10853 ft 353 kts 90°
2026-05-01 13:51 49.85147 73.09252 10425 ft 334 kts 90°
2026-05-01 13:51 49.85200 73.11603 10152 ft 323 kts 90°
2026-05-01 13:51 49.85299 73.16087 9638 ft 305 kts 90°
2026-05-01 13:51 49.85370 73.19340 9267 ft 301 kts 90°
2026-05-01 13:52 49.85440 73.22575 8899 ft 301 kts 90°
2026-05-01 13:52 49.85509 73.25808 8533 ft 301 kts 89°
2026-05-01 13:52 49.85555 73.27961 8287 ft 300 kts 89°
2026-05-01 13:52 49.85645 73.32256 7793 ft 299 kts 89°
2026-05-01 13:53 49.85712 73.35467 7428 ft 298 kts 89°
2026-05-01 13:53 49.85841 73.41833 6800 ft 296 kts 90°
2026-05-01 13:53 49.85862 73.42894 6679 ft 295 kts 89°
2026-05-01 13:54 49.85966 73.48144 6065 ft 291 kts 90°
2026-05-01 13:54 49.86001 73.51261 5686 ft 288 kts 93°
2026-05-01 13:54 49.85746 73.53267 5372 ft 285 kts 112°
2026-05-01 13:54 49.84203 73.56389 4936 ft 273 kts 146°
2026-05-01 13:55 49.82608 73.57932 4672 ft 271 kts 152°
2026-05-01 13:55 49.80930 73.59207 4278 ft 269 kts 166°
2026-05-01 13:55 49.79102 73.59305 3954 ft 259 kts 191°
2026-05-01 13:55 49.78008 73.58745 3934 ft 241 kts 206°
2026-05-01 13:56 49.76736 73.57230 3940 ft 227 kts 227°
2026-05-01 13:56 49.75648 73.54825 3941 ft 173 kts 238°
2026-05-01 13:56 49.75264 73.53854 3935 ft 147 kts 238°
2026-05-01 13:56 49.74632 73.52269 3927 ft 120 kts 238°
2026-05-01 13:57 49.74212 73.51213 3948 ft 113 kts 238°
2026-05-01 13:57 49.73938 73.50518 3953 ft 115 kts 239°
2026-05-01 13:57 49.73374 73.49098 3956 ft 118 kts 239°
2026-05-01 13:57 49.72938 73.48003 3960 ft 121 kts 239°
2026-05-01 13:58 49.72480 73.46854 3708 ft 130 kts 239°
2026-05-01 13:58 49.71991 73.45616 3262 ft 139 kts 239°
2026-05-01 13:58 49.71490 73.44364 2999 ft 132 kts 239°
2026-05-01 13:58 49.71017 73.43194 2810 ft 127 kts 240°
2026-05-01 13:59 49.70571 73.42030 2670 ft 125 kts 239°
2026-05-01 13:59 49.70270 73.41273 2623 ft 124 kts 238°
2026-05-01 13:59 49.69647 73.39724 2396 ft 130 kts 238°
2026-05-01 13:59 49.69185 73.38512 2192 ft 131 kts 237°
2026-05-01 14:00 49.68700 73.37315 2043 ft 132 kts 236°
2026-05-01 14:00 49.68217 73.36121 1883 ft 132 kts 236°
2026-05-01 14:00 49.67897 73.35322 1774 ft 126 kts 235°
2026-05-01 14:00 49.67376 73.34048 1771 ft 66 kts 238°
2026-05-01 14:01 49.67279 73.33796 1771 ft 18 kts 248°
2026-05-01 14:01 49.67321 73.33669 1773 ft 14 kts 328°
2026-05-01 14:01 49.67396 73.33593 1772 ft 12 kts 327°
2026-05-01 14:01 49.67466 73.33525 1773 ft 12 kts 328°
2026-05-01 14:02 49.67501 73.33437 1771 ft 9 kts 285°
2026-05-01 14:02 49.67534 73.33391 1772 ft 6 kts 325°
2026-05-01 14:02 49.67541 73.33384 1773 ft 0 kts 326°